Terminal Aerodrome Forecast
Issued by NWS

Home | Current Version | Previous Version | Text Only | Print | Product List | Glossary On
Versions: 1 2 3 4 5 6 7 8 9 10 11 12 13 14 15 16 17 18 19 20 21 22 23 24 25 26 27 28 29 30 31 32 33 34 35 36 37 38 39 40 41
000
FTAK31 PANC 061736
TAFAEN
TAF
PAEN 061736Z 0618/0718 18007KT P6SM BKN120
     FM070200 17009KT P6SM BKN060
     FM070400 18010KT 6SM -RASN SCT025 BKN035
     FM070700 18010G18KT 5SM -RASN BR SCT012 BKN020
     FM071500 20015G25KT P6SM VCSH SCT030 BKN045=

USA.gov is the U.S. government's official web portal to all federal, state and local government web resources and services.